Tracking 17844 objects as of 26-August-2016
HD Live streaming from Space Station
objects crossing your sky now

FALCON 9 R/B

Track FALCON 9 R/B now!
10-day predictions


NORAD ID: 37253
Int'l Code: 2010-066K
Perigee: 294.2 km
Apogee: 10,331.8 km
Inclination: 34.5 °
Period: 209.5 minutes
Semi major axis: 11683 km
RCS: 20.0149 m2 (large)
Launch date: December 8, 2010
Source: United States (US)
Launch site: AIR FORCE EASTERN TEST RANGE (AFETR)

Note: This is a ROCKET BODY
Your satellite tracking list
Your tracking list is empty





NASA's NSSDC Master Catalog

Two Line Element Set (TLE):
1 37253U 10066K   16239.49253298  .00002117  00000-0  18497-3 0  9999
2 37253  34.5426  69.9262 4295465 284.7760  32.5723  6.87410413140279
Source of the keplerian elements: AFSPC

N2YO: 554